Starlink 30993

operational
NORAD ID: 58489 Int'l Des: 2023-186 Owner: SPXS Country: US Constellation: starlink
LEOCIRCULAR

Über Starlink 30993

Beschreibung wird geladen...

Live-Position

3D-Globus wird geladen...

Nächste Überflüge

Höhenverlauf

Altitude vs Time

uPlot chart will show altitude changes over time

Zweizeiliger Elementsatz

1 58489U 23186S 25304.99395176 -.00003682 00000-0 -25768-3 0 9999
2 58489 43.0022 46.6306 0001424 267.4340 92.6339 15.02525799106485
Epoch: 31. Okt. 2025 • Age: 24 hours

Aktueller Status

Höhe 570.9 km
Geschwindigkeit 7.58 km/s
Subsatellitenpunkt -41.71°S, 63.83°W
Startdatum 3. Dez. 2023
Alter 1.9 years
Typ internet

Technische Details

Klassifizierung Payload
Masse 730.00 kg
Trockenmasse 700.00 kg
Gesamtmasse 730.00 kg
Länge 0.30 m
Durchmesser 4.10 m
Spannweite 29.00 m
Form Box + pan
Hersteller SPXS
Bus-Typ Starlink V2M
Phasenstatus In Orbit
Besitzer/Staat SPXS/US

Große Konstellationen

Loading constellations...